Regional Weather Roundup
Issued by NWS Little Rock, AR

Home | Current Version | Previous Version | Graphics & Text | Print | Product List | Glossary On
Versions: 1 2 3 4 5 6 7 8 9 10 11 12 13 14 15 16 17 18 19 20 21 22 23 24 25 26 27
000
ASUS44 KLZK 242305
RWRLZK

WEATHER ROUNDUP FOR ARKANSAS
NATIONAL WEATHER SERVICE LITTLE ROCK AR
600 PM CDT FRI OCT 24 2014

NOTE: "FAIR" INDICATES FEW OR NO CLOUDS BELOW 12,000 FEET WITH NO
SIGNIFICANT WEATHER AND/OR OBSTRUCTIONS TO VISIBILITY.

ARZ001-003-010-029-250000-
NORTHWEST ARKANSAS

CITY           SKY/WX    TMP DP  RH WIND       PRES   REMARKS
FAYETTEVILLE   MOCLDY    68  60  75 S3        30.08S
FORT SMITH     CLOUDY    75  60  59 CALM      30.05F
HARRISON       CLOUDY    71  62  73 S3        30.07S
BENTONVILLE    PTCLDY    70  59  68 S6        30.08S
ROGERS         PTCLDY    70  59  68 S8        30.08F
SILOAM SPGS    MOCLDY    70  57  64 S8        30.09R
HIGHFILL       PTCLDY    70  62  76 S3        30.07S
SPRINGDALE     MOCLDY    70  61  73 S5        30.10S
$$

ARZ004-005-016-250000-
NORTH CENTRAL ARKANSAS

CITY           SKY/WX    TMP DP  RH WIND       PRES   REMARKS
BATESVILLE     CLEAR     70  57  64 SW3       30.07S
FLIPPIN        MOCLDY    70  57  64 CALM      30.06F
MTN HOME       PTCLDY    67  59  75 CALM      30.06S
$$

ARZ040-041-250000-
WEST CENTRAL ARKANSAS

CITY           SKY/WX    TMP DP  RH WIND       PRES   REMARKS
MENA           CLOUDY    72  64  78 CALM      30.10F
MOUNT IDA      MOCLDY    70  62  76 CALM      30.07F
$$

ARZ009-017-025-026-028-250000-
NORTHEAST ARKANSAS

CITY           SKY/WX    TMP DP  RH WIND       PRES   REMARKS
CORNING        FAIR      68  59  73 SW5       30.06F
JONESBORO      CLEAR     70  57  63 CALM      30.06F
NEWPORT        CLEAR     74  57  55 CALM      30.08S
WALNUT RIDGE   CLEAR     72  55  56 S3        30.06S
BLYTHEVILLE    CLEAR     70  57  63 NW5       30.07S
$$

ARZ022-023-033-042-044-250000-
CENTRAL ARKANSAS

CITY           SKY/WX    TMP DP  RH WIND       PRES   REMARKS
LITTLE ROCK    PTCLDY    72  55  55 S7        30.08S
N LITTLE ROCK  PTCLDY    71  60  68 S2        30.08S
JACKSONVILLE   CLEAR     72  58  63 CALM      30.08S HAZE
SEARCY         CLEAR     69  58  67 S3        30.09S
HOT SPRINGS    PTCLDY    72  59  63 S3        30.10S
RUSSELLVILLE   MOCLDY    70  63  78 CALM      30.07S
$$

ARZ036-250000-
EAST ARKANSAS

CITY           SKY/WX    TMP DP  RH WIND       PRES   REMARKS
WEST MEMPHIS   CLEAR     71  57  61 CALM      30.06S
$$

ARZ050-053-066-070-073-250000-
SOUTHWEST ARKANSAS

CITY           SKY/WX    TMP DP  RH WIND       PRES   REMARKS
ARKADELPHIA    FAIR      70  63  78 CALM      30.10S
CAMDEN         CLEAR     68  55  64 CALM      30.10S
TEXARKANA      MOCLDY    75  57  53 S3        30.10S
EL DORADO      PTCLDY    66  57  72 NW3       30.11S
DE QUEEN       MOCLDY    74  61  63 CALM      30.08S
$$

ARZ056-057-069-250000-
SOUTHEAST ARKANSAS

CITY           SKY/WX    TMP DP  RH WIND       PRES   REMARKS
PINE BLUFF     CLEAR     71  56  58 SW3       30.10R
STUTTGART      CLEAR     73  54  49 SW3       30.10S
MONTICELLO     CLEAR     69  58  67 CALM      30.10S

$$





USA.gov is the U.S. government's official web portal to all federal, state and local government web resources and services.